Regional Weather Roundup
Issued by NWS

Home | Current Version | Previous Version | Text Only | Print | Product List | Glossary On
Versions: 1 2 3 4 5 6 7 8 9 10 11 12 13 14 15 16 17 18 19 20 21 22 23 24 25 26 27 28 29 30 31 32 33 34 35 36 37 38 39 40 41 42 43 44 45 46 47 48 49 50
000
ASUS43 KDMX 051407
RWRIA

WEATHER ROUNDUP FOR IOWA
NATIONAL WEATHER SERVICE DES MOINES IA
900 AM CDT SUN JUL 05 2015

NOTE: "FAIR" INDICATES FEW OR NO CLOUDS BELOW 12,000 FEET WITH NO
SIGNIFICANT WEATHER AND/OR OBSTRUCTIONS TO VISIBILITY.

* - THESE STATIONS ARE NOT NWS STATIONS...THUS NOT UNDER NWS
QUALITY CONTROL.  THEY ALSO DO NOT REPORT WEATHER SUCH
AS PRECIPITATION OR FOG.

IAZ001>003-012>014-020>022-031>034-043>046-051500-
   NORTHWEST IOWA

CITY           SKY/WX    TMP DP  RH WIND       PRES   REMARKS
CARROLL *      SUNNY     70  66  88 S10       29.98R
CHEROKEE *     CLOUDY    68  66  94 SW6       29.97R
DENISON *      SUNNY     70  64  83 VRB6      29.95R
LE MARS *      MOSUNNY   70  66  88 S21G26    29.90F
ORANGE CITY *  SUNNY     66  64  94 S5        29.93F
SHELDON *      PTSUNNY   68  68 100 CALM      29.95R
SIOUX CITY     CLOUDY    68  63  84 SE8       29.94F
SPENCER        CLOUDY    68  61  78 S6        29.97R
STORM LAKE *     N/A     68  64  88 S10       29.98R
$$

IAZ055>058-069>071-079>083-090>094-051500-
   SOUTHWEST IOWA

CITY           SKY/WX    TMP DP  RH WIND       PRES   REMARKS
ATLANTIC *     SUNNY     73  66  78 S10       29.97S
AUDUBON *      SUNNY     72  66  83 S8        29.99R
CLARINDA *     SUNNY     73  68  83 S7        30.00S
COUNCIL BLFS * SUNNY     68  64  88 SE9       29.95F FOG
CRESTON *      SUNNY     73  66  78 S12G18    30.00F
HARLAN  *      SUNNY     70  70 100 S7        30.00R
LAMONI         MOSUNNY   72  66  81 S8        30.01S
RED OAK *      SUNNY     72  66  83 S13       29.97S
SHENANDOAH *   SUNNY     72  66  83 S12       29.97R
$$

IAZ047>049-059>061-072>074-084-051500-
   CENTRAL IOWA

CITY           SKY/WX    TMP DP  RH WIND       PRES   REMARKS
AMES           PTSUNNY   72  65  78 S8        30.00S
ANKENY *       SUNNY     73  66  78 S10       30.00R
CHARITON *     SUNNY     73  68  83 S8        30.02S
DES MOINES     CLOUDY    73  64  73 S9        29.99S
GRINNELL*      SUNNY     72  64  78 S9        30.03S
KNOXVILLE *    SUNNY     72  66  83 S6        30.00S
MARSHALLTOWN   MOSUNNY   72  65  78 S10       30.01S
PELLA *        MOSUNNY   72  68  88 S6        30.02F
PERRY *          N/A     70  66  88 S9        29.99S
$$

IAZ004>006-015-016-023>025-035-036-051500-
   NORTH CENTRAL IOWA

CITY           SKY/WX    TMP DP  RH WIND       PRES   REMARKS
ALGONA *       SUNNY     70  64  83 S12       29.98S
CLARION *      SUNNY     72  64  78 S10G17    29.99S
ESTHERVILLE    CLOUDY    65  62  90 S10       29.97R
FORT DODGE *   CLOUDY    72  63  73 S9        29.99S
MASON CITY     PTSUNNY   68  64  87 S8        30.01F
FOREST CITY *  SUNNY     70  63  78 S9        29.99S
IOWA FALLS *     N/A     70  64  83 S8        30.01S
$$

IAZ007>011-017>019-026>030-037>042-050>054-066-051500-
   NORTHEAST IOWA

CITY           SKY/WX    TMP DP  RH WIND       PRES   REMARKS
CEDAR RAPIDS   SUNNY     70  66  87 S10       30.04R FOG
CHARLES CITY * SUNNY     70  66  88 S9        30.02F
CLINTON *      SUNNY     70  64  83 S7        30.09S
DECORAH *        N/A    N/A N/A N/A MISG        N/A
DUBUQUE        SUNNY     70  64  81 S9        30.06R
MONTICELLO *   SUNNY     72  68  88 S7        30.06R
OELWEIN *        N/A     70  66  88 S10       30.05S
WATERLOO       SUNNY     73  64  73 S9        30.01F
$$

IAZ064-065-067-068-078-051500-
   EAST CENTRAL IOWA

CITY           SKY/WX    TMP DP  RH WIND       PRES   REMARKS
DAVENPORT      SUNNY     72  64  76 S7        30.07R
IOWA CITY      SUNNY     70  65  84 SE5       30.06R
MT. PLEASANT * SUNNY     75  63  64 S6        30.05S HAZE
MUSCATINE *    SUNNY     72  64  78 S6        30.05F
QUAD CITIES    SUNNY     73  64  73 SW3       30.06R
$$

IAZ062-063-075>077-085>089-095>099-051500-
   SOUTHEAST IOWA

CITY           SKY/WX    TMP DP  RH WIND       PRES   REMARKS
BURLINGTON     SUNNY     73  65  75 S6        30.05S
FAIRFIELD *    SUNNY     73  64  73 S8        30.04S
FORT MADISON * SUNNY     72  64  78 S3        30.06R
KEOKUK *       SUNNY     73  66  78 VRB6      30.05R
OSKALOOSA *      N/A     72  66  83 S3        30.04R
CENTERVILLE *  SUNNY     72  66  83 S8        30.04S
OTTUMWA        SUNNY     71  66  84 S7        30.02R
WASHINGTON *   SUNNY     72  68  88 S6        30.06S
$$

ABBREVIATIONS USED IN REMARKS
   TC - TEMPERATURES IN CELSIUS
  WCI - WIND CHILL INDEX
   HX - HEAT INDEX
  VSB - VISIBILITY
$$



USA.gov is the U.S. government's official web portal to all federal, state and local government web resources and services.